owner,sensor,date,latitude,longitude,air_pressure(mBar),qcFlag 
TABS,ioos:station:wmo:42043:1,2005-02-08T15:00:00Z,28.9818,-94.9186,1018.38,11111222 
TABS,ioos:station:wmo:42043:1,2005-02-08T15:30:00Z,28.9818,-94.9186,1018.52,11111222 
TABS,ioos:station:wmo:42043:1,2005-02-08T16:00:00Z,28.9818,-94.9186,1018.09,11111222 
TABS,ioos:station:wmo:42043:1,2005-02-08T16:30:00Z,28.9818,-94.9186,1018.16,11111222 
TABS,ioos:station:wmo:42043:1,2005-02-08T17:00:00Z,28.9818,-94.9186,1018.22,11111222 
TABS,ioos:station:wmo:42043:1,2005-02-08T17:30:00Z,28.9818,-94.9186,1017.74,11111222 
TABS,ioos:station:wmo:42043:1,2005-02-08T18:00:00Z,28.9818,-94.9186,1017.28,11111222 
TABS,ioos:station:wmo:42043:1,2005-02-08T18:30:00Z,28.9818,-94.9186,1017.29,11111222 
TABS,ioos:station:wmo:42043:1,2005-02-08T19:00:00Z,28.9818,-94.9186,1016.27,11111222 
TABS,ioos:station:wmo:42043:1,2005-02-08T19:30:00Z,28.9818,-94.9186,1015.79,11111222 
TABS,ioos:station:wmo:42043:1,2005-02-08T20:00:00Z,28.9818,-94.9186,1015.03,11111222 
TABS,ioos:station:wmo:42043:1,2005-02-08T20:30:00Z,28.9818,-94.9186,1014.59,11111222 
TABS,ioos:station:wmo:42043:1,2005-02-08T21:00:00Z,28.9818,-94.9186,1014.43,11111222 
TABS,ioos:station:wmo:42043:1,2005-02-08T21:30:00Z,28.9818,-94.9186,1014.51,11111222 
TABS,ioos:station:wmo:42043:1,2005-02-08T22:00:00Z,28.9818,-94.9186,1014.14,11111222 
TABS,ioos:station:wmo:42043:1,2005-02-08T22:30:00Z,28.9818,-94.9186,1014.56,11111222 
TABS,ioos:station:wmo:42043:1,2005-02-08T23:00:00Z,28.9818,-94.9186,1014.02,11111222 
TABS,ioos:station:wmo:42043:1,2005-02-08T23:30:00Z,28.9818,-94.9186,1014.15,11111222 
TABS,ioos:station:wmo:42043:1,2005-02-09T00:00:00Z,28.9818,-94.9186,1014.31,11111222 
TABS,ioos:station:wmo:42043:1,2005-02-09T00:30:00Z,28.9818,-94.9186,1014.32,11111222 
TABS,ioos:station:wmo:42043:1,2005-02-09T01:00:00Z,28.9818,-94.9186,1014.29,11111222 
TABS,ioos:station:wmo:42043:1,2005-02-09T01:30:00Z,28.9818,-94.9186,1014.98,11111222 
TABS,ioos:station:wmo:42043:1,2005-02-09T02:00:00Z,28.9818,-94.9186,1015.22,11111222 
TABS,ioos:station:wmo:42043:1,2005-02-09T02:30:00Z,28.9818,-94.9186,1015.62,11111222 
TABS,ioos:station:wmo:42043:1,2005-02-09T03:00:00Z,28.9818,-94.9186,1015.46,11111222 
TABS,ioos:station:wmo:42043:1,2005-02-09T03:30:00Z,28.9818,-94.9186,1015.66,11111222 
TABS,ioos:station:wmo:42043:1,2005-02-09T04:00:00Z,28.9818,-94.9186,1015.58,11111222 
TABS,ioos:station:wmo:42043:1,2005-02-09T04:30:00Z,28.9818,-94.9186,1015.46,11111222 
TABS,ioos:station:wmo:42043:1,2005-02-09T05:00:00Z,28.9818,-94.9186,1015.37,11111222 
TABS,ioos:station:wmo:42043:1,2005-02-09T05:30:00Z,28.9818,-94.9186,1015.61,11111222 
TABS,ioos:station:wmo:42043:1,2005-02-09T06:00:00Z,28.9818,-94.9186,1015.34,11111222 
TABS,ioos:station:wmo:42043:1,2005-02-09T06:30:00Z,28.9818,-94.9186,1015.29,11111222 
TABS,ioos:station:wmo:42043:1,2005-02-09T07:00:00Z,28.9818,-94.9186,1015.08,11111222 
TABS,ioos:station:wmo:42043:1,2005-02-09T07:30:00Z,28.9818,-94.9186,1015.0,11111222 
TABS,ioos:station:wmo:42043:1,2005-02-09T08:00:00Z,28.9818,-94.9186,1014.64,11111222 
TABS,ioos:station:wmo:42043:1,2005-02-09T08:30:00Z,28.9818,-94.9186,1014.63,11111222 
TABS,ioos:station:wmo:42043:1,2005-02-09T09:00:00Z,28.9818,-94.9186,1014.57,11111222 
TABS,ioos:station:wmo:42043:1,2005-02-09T09:30:00Z,28.9818,-94.9186,1014.62,11111222 
TABS,ioos:station:wmo:42043:1,2005-02-09T10:00:00Z,28.9818,-94.9186,1014.73,11111222 
TABS,ioos:station:wmo:42043:1,2005-02-09T10:30:00Z,28.9818,-94.9186,1015.14,11111222 
TABS,ioos:station:wmo:42043:1,2005-02-09T11:00:00Z,28.9818,-94.9186,1015.13,11111222 
TABS,ioos:station:wmo:42043:1,2005-02-09T11:30:00Z,28.9818,-94.9186,1015.46,11111222 
TABS,ioos:station:wmo:42043:1,2005-02-09T12:00:00Z,28.9818,-94.9186,1015.6,11111222 
TABS,ioos:station:wmo:42043:1,2005-02-09T12:30:00Z,28.9818,-94.9186,1015.85,11111222 
TABS,ioos:station:wmo:42043:1,2005-02-09T13:00:00Z,28.9818,-94.9186,1016.06,11111222 
TABS,ioos:station:wmo:42043:1,2005-02-09T13:30:00Z,28.9818,-94.9186,1016.33,11111222 
TABS,ioos:station:wmo:42043:1,2005-02-09T14:00:00Z,28.9818,-94.9186,1016.68,11111222 
TABS,ioos:station:wmo:42043:1,2005-02-09T14:30:00Z,28.9818,-94.9186,1017.2,11111222 
TABS,ioos:station:wmo:42043:1,2005-02-09T15:00:00Z,28.9818,-94.9186,1017.77,11111222 
TABS,ioos:station:wmo:42043:1,2005-02-09T15:30:00Z,28.9818,-94.9186,1017.93,11111222 
TABS,ioos:station:wmo:42043:1,2005-02-09T16:00:00Z,28.9818,-94.9186,1018.18,11111222 
TABS,ioos:station:wmo:42043:1,2005-02-09T16:30:00Z,28.9818,-94.9186,1018.35,11111222 
TABS,ioos:station:wmo:42043:1,2005-02-09T17:00:00Z,28.9818,-94.9186,1018.84,11111222 
TABS,ioos:station:wmo:42043:1,2005-02-09T17:30:00Z,28.9818,-94.9186,1019.01,11111222 
TABS,ioos:station:wmo:42043:1,2005-02-09T18:00:00Z,28.9818,-94.9186,1019.0,11111222 
TABS,ioos:station:wmo:42043:1,2005-02-09T18:30:00Z,28.9818,-94.9186,1018.83,11111222 
TABS,ioos:station:wmo:42043:1,2005-02-09T19:00:00Z,28.9818,-94.9186,1018.55,11111222 
TABS,ioos:station:wmo:42043:1,2005-02-09T19:30:00Z,28.9818,-94.9186,1018.22,11111222 
TABS,ioos:station:wmo:42043:1,2005-02-09T20:00:00Z,28.9818,-94.9186,1018.48,11111222 
TABS,ioos:station:wmo:42043:1,2005-02-09T20:30:00Z,28.9818,-94.9186,1018.49,11111222 
TABS,ioos:station:wmo:42043:1,2005-02-09T21:00:00Z,28.9818,-94.9186,1018.2,11111222 
TABS,ioos:station:wmo:42043:1,2005-02-09T21:30:00Z,28.9818,-94.9186,1018.34,11111222 
TABS,ioos:station:wmo:42043:1,2005-02-09T22:00:00Z,28.9818,-94.9186,1018.78,11111222 
TABS,ioos:station:wmo:42043:1,2005-02-09T22:30:00Z,28.9818,-94.9186,1018.94,11111222 
TABS,ioos:station:wmo:42043:1,2005-02-09T23:00:00Z,28.9818,-94.9186,1019.44,11111222 
TABS,ioos:station:wmo:42043:1,2005-02-09T23:30:00Z,28.9818,-94.9186,1019.71,11111222 
TABS,ioos:station:wmo:42043:1,2005-02-10T00:00:00Z,28.9818,-94.9186,1020.21,11111222 
TABS,ioos:station:wmo:42043:1,2005-02-10T00:30:00Z,28.9818,-94.9186,1020.65,11111222 
TABS,ioos:station:wmo:42043:1,2005-02-10T01:00:00Z,28.9818,-94.9186,1021.05,11111222 
TABS,ioos:station:wmo:42043:1,2005-02-10T01:30:00Z,28.9818,-94.9186,1020.9,11111222 
TABS,ioos:station:wmo:42043:1,2005-02-10T02:00:00Z,28.9818,-94.9186,1021.75,11111222 
TABS,ioos:station:wmo:42043:1,2005-02-10T02:30:00Z,28.9818,-94.9186,1022.4,11111222 
TABS,ioos:station:wmo:42043:1,2005-02-10T03:00:00Z,28.9818,-94.9186,1023.43,11111222 
TABS,ioos:station:wmo:42043:1,2005-02-10T03:30:00Z,28.9818,-94.9186,1024.05,11111222 
TABS,ioos:station:wmo:42043:1,2005-02-10T04:00:00Z,28.9818,-94.9186,1024.89,11111222 
TABS,ioos:station:wmo:42043:1,2005-02-10T04:30:00Z,28.9818,-94.9186,1024.75,11111222 
TABS,ioos:station:wmo:42043:1,2005-02-10T05:00:00Z,28.9818,-94.9186,1024.8,11111222 
TABS,ioos:station:wmo:42043:1,2005-02-10T05:30:00Z,28.9818,-94.9186,1025.23,11111222 
TABS,ioos:station:wmo:42043:1,2005-02-10T06:00:00Z,28.9818,-94.9186,1025.87,11111222 
TABS,ioos:station:wmo:42043:1,2005-02-10T06:30:00Z,28.9818,-94.9186,1025.76,11111222 
TABS,ioos:station:wmo:42043:1,2005-02-10T07:00:00Z,28.9818,-94.9186,1025.35,11111222 
TABS,ioos:station:wmo:42043:1,2005-02-10T07:30:00Z,28.9818,-94.9186,1026.13,11111222 
TABS,ioos:station:wmo:42043:1,2005-02-10T08:00:00Z,28.9818,-94.9186,1026.14,11111222 
TABS,ioos:station:wmo:42043:1,2005-02-10T08:30:00Z,28.9818,-94.9186,1025.74,11111222 
TABS,ioos:station:wmo:42043:1,2005-02-10T09:00:00Z,28.9818,-94.9186,1025.88,11111222 
TABS,ioos:station:wmo:42043:1,2005-02-10T09:30:00Z,28.9818,-94.9186,1026.08,11111222 
TABS,ioos:station:wmo:42043:1,2005-02-10T10:00:00Z,28.9818,-94.9186,1026.66,11111222 
TABS,ioos:station:wmo:42043:1,2005-02-10T10:30:00Z,28.9818,-94.9186,1026.67,11111222 
TABS,ioos:station:wmo:42043:1,2005-02-10T11:00:00Z,28.9818,-94.9186,1026.64,11111222 
TABS,ioos:station:wmo:42043:1,2005-02-10T11:30:00Z,28.9818,-94.9186,1027.01,11111222 
TABS,ioos:station:wmo:42043:1,2005-02-10T12:00:00Z,28.9818,-94.9186,1027.33,11111222 
TABS,ioos:station:wmo:42043:1,2005-02-10T12:30:00Z,28.9818,-94.9186,1027.85,11111222 
TABS,ioos:station:wmo:42043:1,2005-02-10T13:00:00Z,28.9818,-94.9186,1028.06,11111222 
TABS,ioos:station:wmo:42043:1,2005-02-10T13:30:00Z,28.9818,-94.9186,1028.39,11111222 
TABS,ioos:station:wmo:42043:1,2005-02-10T14:00:00Z,28.9818,-94.9186,1028.99,11111222 
TABS,ioos:station:wmo:42043:1,2005-02-10T14:30:00Z,28.9818,-94.9186,1029.24,11111222 
TABS,ioos:station:wmo:42043:1,2005-02-10T15:00:00Z,28.9818,-94.9186,1029.62,11111222 
TABS,ioos:station:wmo:42043:1,2005-02-10T15:30:00Z,28.9818,-94.9186,1030.0,11111222 
TABS,ioos:station:wmo:42043:1,2005-02-10T16:00:00Z,28.9818,-94.9186,1030.41,11111222 
TABS,ioos:station:wmo:42043:1,2005-02-10T16:30:00Z,28.9818,-94.9186,1030.94,11111222 
TABS,ioos:station:wmo:42043:1,2005-02-10T17:00:00Z,28.9818,-94.9186,1030.96,11111222 
TABS,ioos:station:wmo:42043:1,2005-02-10T17:30:00Z,28.9818,-94.9186,1030.65,11111222 
TABS,ioos:station:wmo:42043:1,2005-02-10T18:00:00Z,28.9818,-94.9186,1030.46,11111222 
TABS,ioos:station:wmo:42043:1,2005-02-10T18:30:00Z,28.9818,-94.9186,1029.9,11111222 
TABS,ioos:station:wmo:42043:1,2005-02-10T19:00:00Z,28.9818,-94.9186,1029.22,11111222 
TABS,ioos:station:wmo:42043:1,2005-02-10T19:30:00Z,28.9818,-94.9186,1028.88,11111222 
TABS,ioos:station:wmo:42043:1,2005-02-10T20:00:00Z,28.9818,-94.9186,1028.17,11111222 
TABS,ioos:station:wmo:42043:1,2005-02-10T20:30:00Z,28.9818,-94.9186,1027.92,11111222 
TABS,ioos:station:wmo:42043:1,2005-02-10T21:00:00Z,28.9818,-94.9186,1027.48,11111222 
TABS,ioos:station:wmo:42043:1,2005-02-10T21:30:00Z,28.9818,-94.9186,1027.69,11111222 
TABS,ioos:station:wmo:42043:1,2005-02-10T22:00:00Z,28.9818,-94.9186,1027.58,11111222 
TABS,ioos:station:wmo:42043:1,2005-02-10T22:30:00Z,28.9818,-94.9186,1027.68,11111222 
TABS,ioos:station:wmo:42043:1,2005-02-10T23:00:00Z,28.9818,-94.9186,1027.68,11111222 
TABS,ioos:station:wmo:42043:1,2005-02-10T23:30:00Z,28.9818,-94.9186,1027.68,11111222 
TABS,ioos:station:wmo:42043:1,2005-02-11T00:00:00Z,28.9818,-94.9186,1027.73,11111222 
TABS,ioos:station:wmo:42043:1,2005-02-11T00:30:00Z,28.9818,-94.9186,1027.92,11111222 
TABS,ioos:station:wmo:42043:1,2005-02-11T01:00:00Z,28.9818,-94.9186,1028.51,11111222 
TABS,ioos:station:wmo:42043:1,2005-02-11T01:30:00Z,28.9818,-94.9186,1028.97,11111222 
TABS,ioos:station:wmo:42043:1,2005-02-11T02:00:00Z,28.9818,-94.9186,1029.59,11111222 
TABS,ioos:station:wmo:42043:1,2005-02-11T02:30:00Z,28.9818,-94.9186,1029.67,11111222 
TABS,ioos:station:wmo:42043:1,2005-02-11T03:00:00Z,28.9818,-94.9186,1029.85,11111222 
TABS,ioos:station:wmo:42043:1,2005-02-11T03:30:00Z,28.9818,-94.9186,1030.24,11111222 
TABS,ioos:station:wmo:42043:1,2005-02-11T04:00:00Z,28.9818,-94.9186,1029.78,11111222 
TABS,ioos:station:wmo:42043:1,2005-02-11T04:30:00Z,28.9818,-94.9186,1029.85,11111222 
TABS,ioos:station:wmo:42043:1,2005-02-11T05:00:00Z,28.9818,-94.9186,1029.89,11111222 
TABS,ioos:station:wmo:42043:1,2005-02-11T05:30:00Z,28.9818,-94.9186,1030.16,11111222 
TABS,ioos:station:wmo:42043:1,2005-02-11T06:00:00Z,28.9818,-94.9186,1029.6,11111222 
TABS,ioos:station:wmo:42043:1,2005-02-11T06:30:00Z,28.9818,-94.9186,1030.29,11111222 
TABS,ioos:station:wmo:42043:1,2005-02-11T07:00:00Z,28.9818,-94.9186,1030.2,11111222 
TABS,ioos:station:wmo:42043:1,2005-02-11T07:30:00Z,28.9818,-94.9186,1030.04,11111222 
TABS,ioos:station:wmo:42043:1,2005-02-11T08:00:00Z,28.9818,-94.9186,1030.57,11111222 
TABS,ioos:station:wmo:42043:1,2005-02-11T08:30:00Z,28.9818,-94.9186,1030.25,11111222 
TABS,ioos:station:wmo:42043:1,2005-02-11T09:00:00Z,28.9818,-94.9186,1030.04,11111222 
TABS,ioos:station:wmo:42043:1,2005-02-11T09:30:00Z,28.9818,-94.9186,1029.94,11111222 
TABS,ioos:station:wmo:42043:1,2005-02-11T10:00:00Z,28.9818,-94.9186,1029.95,11111222 
TABS,ioos:station:wmo:42043:1,2005-02-11T10:30:00Z,28.9818,-94.9186,1029.91,11111222 
TABS,ioos:station:wmo:42043:1,2005-02-11T11:00:00Z,28.9818,-94.9186,1029.66,11111222 
TABS,ioos:station:wmo:42043:1,2005-02-11T11:30:00Z,28.9818,-94.9186,1029.45,11111222 
TABS,ioos:station:wmo:42043:1,2005-02-11T12:00:00Z,28.9818,-94.9186,1029.58,11111222 
TABS,ioos:station:wmo:42043:1,2005-02-11T12:30:00Z,28.9818,-94.9186,1029.69,11111222 
TABS,ioos:station:wmo:42043:1,2005-02-11T13:00:00Z,28.9818,-94.9186,1029.95,11111222 
TABS,ioos:station:wmo:42043:1,2005-02-11T13:30:00Z,28.9818,-94.9186,1030.11,11111222 
TABS,ioos:station:wmo:42043:1,2005-02-11T14:00:00Z,28.9818,-94.9186,1030.01,11111222 
TABS,ioos:station:wmo:42043:1,2005-02-11T14:30:00Z,28.9818,-94.9186,1030.77,11111222 
TABS,ioos:station:wmo:42043:1,2005-02-11T15:00:00Z,28.9818,-94.9186,1030.81,11111222 
TABS,ioos:station:wmo:42043:1,2005-02-11T15:30:00Z,28.9818,-94.9186,1031.17,11111222 
TABS,ioos:station:wmo:42043:1,2005-02-11T16:00:00Z,28.9818,-94.9186,1031.12,11111222 
TABS,ioos:station:wmo:42043:1,2005-02-11T16:30:00Z,28.9818,-94.9186,1031.36,11111222 
TABS,ioos:station:wmo:42043:1,2005-02-11T17:00:00Z,28.9818,-94.9186,1031.23,11111222 
TABS,ioos:station:wmo:42043:1,2005-02-11T17:30:00Z,28.9818,-94.9186,1030.97,11111222 
TABS,ioos:station:wmo:42043:1,2005-02-11T18:00:00Z,28.9818,-94.9186,1030.54,11111222 
TABS,ioos:station:wmo:42043:1,2005-02-11T18:30:00Z,28.9818,-94.9186,1030.07,11111222 
TABS,ioos:station:wmo:42043:1,2005-02-11T19:00:00Z,28.9818,-94.9186,1029.47,11111222 
TABS,ioos:station:wmo:42043:1,2005-02-11T19:30:00Z,28.9818,-94.9186,1029.35,11111222 
TABS,ioos:station:wmo:42043:1,2005-02-11T20:00:00Z,28.9818,-94.9186,1029.12,11111222 
TABS,ioos:station:wmo:42043:1,2005-02-11T20:30:00Z,28.9818,-94.9186,1028.87,11111222 
TABS,ioos:station:wmo:42043:1,2005-02-11T21:00:00Z,28.9818,-94.9186,1028.51,11111222 
TABS,ioos:station:wmo:42043:1,2005-02-11T21:30:00Z,28.9818,-94.9186,1027.66,11111222 
TABS,ioos:station:wmo:42043:1,2005-02-11T22:00:00Z,28.9818,-94.9186,1027.36,11111222 
TABS,ioos:station:wmo:42043:1,2005-02-11T22:30:00Z,28.9818,-94.9186,1026.61,11111222 
TABS,ioos:station:wmo:42043:1,2005-02-11T23:00:00Z,28.9818,-94.9186,1027.35,11111222 
TABS,ioos:station:wmo:42043:1,2005-02-11T23:30:00Z,28.9818,-94.9186,1026.83,11111222 
TABS,ioos:station:wmo:42043:1,2005-02-12T00:00:00Z,28.9818,-94.9186,1027.03,11111222 
TABS,ioos:station:wmo:42043:1,2005-02-12T00:30:00Z,28.9818,-94.9186,1027.03,11111222 
TABS,ioos:station:wmo:42043:1,2005-02-12T01:00:00Z,28.9818,-94.9186,1026.92,11111222 
TABS,ioos:station:wmo:42043:1,2005-02-12T01:30:00Z,28.9818,-94.9186,1027.05,11111222 
TABS,ioos:station:wmo:42043:1,2005-02-12T02:00:00Z,28.9818,-94.9186,1027.3,11111222 
TABS,ioos:station:wmo:42043:1,2005-02-12T02:30:00Z,28.9818,-94.9186,1027.26,11111222 
TABS,ioos:station:wmo:42043:1,2005-02-12T03:00:00Z,28.9818,-94.9186,1027.14,11111222 
TABS,ioos:station:wmo:42043:1,2005-02-12T03:30:00Z,28.9818,-94.9186,1026.99,11111222 
TABS,ioos:station:wmo:42043:1,2005-02-12T04:00:00Z,28.9818,-94.9186,1026.56,11111222 
TABS,ioos:station:wmo:42043:1,2005-02-12T04:30:00Z,28.9818,-94.9186,1026.09,11111222 
TABS,ioos:station:wmo:42043:1,2005-02-12T05:00:00Z,28.9818,-94.9186,1026.2,11111222 
TABS,ioos:station:wmo:42043:1,2005-02-12T05:30:00Z,28.9818,-94.9186,1026.0,11111222 
TABS,ioos:station:wmo:42043:1,2005-02-12T06:00:00Z,28.9818,-94.9186,1025.96,11111222 
TABS,ioos:station:wmo:42043:1,2005-02-12T06:30:00Z,28.9818,-94.9186,1025.6,11111222 
TABS,ioos:station:wmo:42043:1,2005-02-12T07:00:00Z,28.9818,-94.9186,1025.45,11111222 
TABS,ioos:station:wmo:42043:1,2005-02-12T07:30:00Z,28.9818,-94.9186,1025.24,11111222 
TABS,ioos:station:wmo:42043:1,2005-02-12T08:00:00Z,28.9818,-94.9186,1025.51,11111222 
TABS,ioos:station:wmo:42043:1,2005-02-12T08:30:00Z,28.9818,-94.9186,1024.95,11111222 
TABS,ioos:station:wmo:42043:1,2005-02-12T09:00:00Z,28.9818,-94.9186,1024.48,11111222 
TABS,ioos:station:wmo:42043:1,2005-02-12T09:30:00Z,28.9818,-94.9186,1023.94,11111222 
TABS,ioos:station:wmo:42043:1,2005-02-12T10:00:00Z,28.9818,-94.9186,1023.72,11111222 
TABS,ioos:station:wmo:42043:1,2005-02-12T10:30:00Z,28.9818,-94.9186,1023.49,11111222 
TABS,ioos:station:wmo:42043:1,2005-02-12T11:00:00Z,28.9818,-94.9186,1023.51,11111222 
TABS,ioos:station:wmo:42043:1,2005-02-12T11:30:00Z,28.9818,-94.9186,1023.5,11111222 
TABS,ioos:station:wmo:42043:1,2005-02-12T12:00:00Z,28.9818,-94.9186,1023.21,11111222 
TABS,ioos:station:wmo:42043:1,2005-02-12T12:30:00Z,28.9818,-94.9186,1022.78,11111222 
TABS,ioos:station:wmo:42043:1,2005-02-12T13:00:00Z,28.9818,-94.9186,1022.74,11111222 
TABS,ioos:station:wmo:42043:1,2005-02-12T13:30:00Z,28.9818,-94.9186,1022.83,11111222 
TABS,ioos:station:wmo:42043:1,2005-02-12T14:00:00Z,28.9818,-94.9186,1022.79,11111222 
TABS,ioos:station:wmo:42043:1,2005-02-12T14:30:00Z,28.9818,-94.9186,1022.58,11111222 
TABS,ioos:station:wmo:42043:1,2005-02-12T15:00:00Z,28.9818,-94.9186,1022.94,11111222 
TABS,ioos:station:wmo:42043:1,2005-02-12T15:30:00Z,28.9818,-94.9186,1023.8,11111222 
TABS,ioos:station:wmo:42043:1,2005-02-12T16:00:00Z,28.9818,-94.9186,1023.74,11111222 
TABS,ioos:station:wmo:42043:1,2005-02-12T16:30:00Z,28.9818,-94.9186,1022.98,11111222 
TABS,ioos:station:wmo:42043:1,2005-02-12T17:00:00Z,28.9818,-94.9186,1022.47,11111222 
TABS,ioos:station:wmo:42043:1,2005-02-12T17:30:00Z,28.9818,-94.9186,1022.32,11111222 
TABS,ioos:station:wmo:42043:1,2005-02-12T18:00:00Z,28.9818,-94.9186,1022.05,11111222 
TABS,ioos:station:wmo:42043:1,2005-02-12T18:30:00Z,28.9818,-94.9186,1021.43,11111222 
TABS,ioos:station:wmo:42043:1,2005-02-12T19:00:00Z,28.9818,-94.9186,1020.85,11111222 
TABS,ioos:station:wmo:42043:1,2005-02-12T19:30:00Z,28.9818,-94.9186,1020.15,11111222 
TABS,ioos:station:wmo:42043:1,2005-02-12T20:00:00Z,28.9818,-94.9186,1019.44,11111222 
TABS,ioos:station:wmo:42043:1,2005-02-12T20:30:00Z,28.9818,-94.9186,1018.86,11111222 
TABS,ioos:station:wmo:42043:1,2005-02-12T21:00:00Z,28.9818,-94.9186,1018.12,11111222 
TABS,ioos:station:wmo:42043:1,2005-02-12T21:30:00Z,28.9818,-94.9186,1017.61,11111222 
TABS,ioos:station:wmo:42043:1,2005-02-12T22:00:00Z,28.9818,-94.9186,1017.25,11111222 
TABS,ioos:station:wmo:42043:1,2005-02-12T22:30:00Z,28.9818,-94.9186,1016.83,11111222 
TABS,ioos:station:wmo:42043:1,2005-02-12T23:00:00Z,28.9818,-94.9186,1016.9,11111222 
TABS,ioos:station:wmo:42043:1,2005-02-12T23:30:00Z,28.9818,-94.9186,1016.61,11111222 
TABS,ioos:station:wmo:42043:1,2005-02-13T00:00:00Z,28.9818,-94.9186,1016.46,11111222 
TABS,ioos:station:wmo:42043:1,2005-02-13T00:30:00Z,28.9818,-94.9186,1016.52,11111222 
TABS,ioos:station:wmo:42043:1,2005-02-13T01:00:00Z,28.9818,-94.9186,1016.83,11111222 
TABS,ioos:station:wmo:42043:1,2005-02-13T01:30:00Z,28.9818,-94.9186,1017.1,11111222 
TABS,ioos:station:wmo:42043:1,2005-02-13T02:00:00Z,28.9818,-94.9186,1017.13,11111222 
TABS,ioos:station:wmo:42043:1,2005-02-13T02:30:00Z,28.9818,-94.9186,1016.85,11111222 
TABS,ioos:station:wmo:42043:1,2005-02-13T03:00:00Z,28.9818,-94.9186,1016.76,11111222 
TABS,ioos:station:wmo:42043:1,2005-02-13T03:30:00Z,28.9818,-94.9186,1016.8,11111222 
TABS,ioos:station:wmo:42043:1,2005-02-13T04:00:00Z,28.9818,-94.9186,1016.7,11111222 
TABS,ioos:station:wmo:42043:1,2005-02-13T04:30:00Z,28.9818,-94.9186,1016.04,11111222 
TABS,ioos:station:wmo:42043:1,2005-02-13T05:00:00Z,28.9818,-94.9186,1016.66,11111222 
TABS,ioos:station:wmo:42043:1,2005-02-13T05:30:00Z,28.9818,-94.9186,1016.35,11111222 
TABS,ioos:station:wmo:42043:1,2005-02-13T06:00:00Z,28.9818,-94.9186,1016.05,11111222 
TABS,ioos:station:wmo:42043:1,2005-02-13T06:30:00Z,28.9818,-94.9186,1015.59,11111222 
TABS,ioos:station:wmo:42043:1,2005-02-13T07:00:00Z,28.9818,-94.9186,1014.62,11111222 
TABS,ioos:station:wmo:42043:1,2005-02-13T07:30:00Z,28.9818,-94.9186,1014.26,11111222 
TABS,ioos:station:wmo:42043:1,2005-02-13T08:00:00Z,28.9818,-94.9186,1013.5,11111222 
TABS,ioos:station:wmo:42043:1,2005-02-13T08:30:00Z,28.9818,-94.9186,1012.85,11111222 
TABS,ioos:station:wmo:42043:1,2005-02-13T09:00:00Z,28.9818,-94.9186,1011.87,11111222 
TABS,ioos:station:wmo:42043:1,2005-02-13T09:30:00Z,28.9818,-94.9186,1011.91,11111222 
TABS,ioos:station:wmo:42043:1,2005-02-13T10:00:00Z,28.9818,-94.9186,1012.63,11111222 
TABS,ioos:station:wmo:42043:1,2005-02-13T10:30:00Z,28.9818,-94.9186,1012.3,11111222 
TABS,ioos:station:wmo:42043:1,2005-02-13T11:00:00Z,28.9818,-94.9186,1011.28,11111222 
TABS,ioos:station:wmo:42043:1,2005-02-13T11:30:00Z,28.9818,-94.9186,1011.47,11111222 
TABS,ioos:station:wmo:42043:1,2005-02-13T12:00:00Z,28.9818,-94.9186,1011.38,11111222 
TABS,ioos:station:wmo:42043:1,2005-02-13T12:30:00Z,28.9818,-94.9186,1011.53,11111222 
TABS,ioos:station:wmo:42043:1,2005-02-13T13:00:00Z,28.9818,-94.9186,1011.61,11111222 
TABS,ioos:station:wmo:42043:1,2005-02-13T13:30:00Z,28.9818,-94.9186,1011.79,11111222 
TABS,ioos:station:wmo:42043:1,2005-02-13T14:00:00Z,28.9818,-94.9186,1012.49,11111222 
TABS,ioos:station:wmo:42043:1,2005-02-13T14:30:00Z,28.9818,-94.9186,1013.16,11111222 
TABS,ioos:station:wmo:42043:1,2005-02-13T15:00:00Z,28.9818,-94.9186,1013.05,11111222 
TABS,ioos:station:wmo:42043:1,2005-02-13T15:30:00Z,28.9818,-94.9186,1013.4,11111222 
TABS,ioos:station:wmo:42043:1,2005-02-13T16:00:00Z,28.9818,-94.9186,1013.4,11111222 
TABS,ioos:station:wmo:42043:1,2005-02-13T16:30:00Z,28.9818,-94.9186,1013.23,11111222 
TABS,ioos:station:wmo:42043:1,2005-02-13T17:00:00Z,28.9818,-94.9186,1012.46,11111222 
TABS,ioos:station:wmo:42043:1,2005-02-13T17:30:00Z,28.9818,-94.9186,1012.07,11111222 
TABS,ioos:station:wmo:42043:1,2005-02-13T18:00:00Z,28.9818,-94.9186,1012.06,11111222 
TABS,ioos:station:wmo:42043:1,2005-02-13T18:30:00Z,28.9818,-94.9186,1011.71,11111222 
TABS,ioos:station:wmo:42043:1,2005-02-13T19:00:00Z,28.9818,-94.9186,1011.31,11111222 
TABS,ioos:station:wmo:42043:1,2005-02-13T19:30:00Z,28.9818,-94.9186,1010.68,11111222 
TABS,ioos:station:wmo:42043:1,2005-02-13T20:00:00Z,28.9818,-94.9186,1010.25,11111222 
TABS,ioos:station:wmo:42043:1,2005-02-13T20:30:00Z,28.9818,-94.9186,1009.82,11111222 
TABS,ioos:station:wmo:42043:1,2005-02-13T21:00:00Z,28.9818,-94.9186,1009.65,11111222 
TABS,ioos:station:wmo:42043:1,2005-02-13T21:30:00Z,28.9818,-94.9186,1009.79,11111222 
TABS,ioos:station:wmo:42043:1,2005-02-13T22:00:00Z,28.9818,-94.9186,1009.74,11111222 
TABS,ioos:station:wmo:42043:1,2005-02-13T22:30:00Z,28.9818,-94.9186,1010.05,11111222 
TABS,ioos:station:wmo:42043:1,2005-02-13T23:00:00Z,28.9818,-94.9186,1009.84,11111222 
TABS,ioos:station:wmo:42043:1,2005-02-13T23:30:00Z,28.9818,-94.9186,1009.9,11111222 
TABS,ioos:station:wmo:42043:1,2005-02-14T00:00:00Z,28.9818,-94.9186,1010.31,11111222 
TABS,ioos:station:wmo:42043:1,2005-02-14T00:30:00Z,28.9818,-94.9186,1010.59,11111222 
TABS,ioos:station:wmo:42043:1,2005-02-14T01:00:00Z,28.9818,-94.9186,1010.89,11111222 
TABS,ioos:station:wmo:42043:1,2005-02-14T01:30:00Z,28.9818,-94.9186,1011.39,11111222 
TABS,ioos:station:wmo:42043:1,2005-02-14T02:00:00Z,28.9818,-94.9186,1011.64,11111222 
TABS,ioos:station:wmo:42043:1,2005-02-14T02:30:00Z,28.9818,-94.9186,1011.95,11111222 
TABS,ioos:station:wmo:42043:1,2005-02-14T03:00:00Z,28.9818,-94.9186,1012.47,11111222 
TABS,ioos:station:wmo:42043:1,2005-02-14T03:30:00Z,28.9818,-94.9186,1012.74,11111222 
TABS,ioos:station:wmo:42043:1,2005-02-14T04:00:00Z,28.9818,-94.9186,1012.97,11111222 
TABS,ioos:station:wmo:42043:1,2005-02-14T04:30:00Z,28.9818,-94.9186,1013.0,11111222 
TABS,ioos:station:wmo:42043:1,2005-02-14T05:00:00Z,28.9818,-94.9186,1013.3,11111222 
TABS,ioos:station:wmo:42043:1,2005-02-14T05:30:00Z,28.9818,-94.9186,1013.5,11111222 
TABS,ioos:station:wmo:42043:1,2005-02-14T06:00:00Z,28.9818,-94.9186,1013.39,11111222 
TABS,ioos:station:wmo:42043:1,2005-02-14T06:30:00Z,28.9818,-94.9186,1013.39,11111222 
TABS,ioos:station:wmo:42043:1,2005-02-14T07:00:00Z,28.9818,-94.9186,1013.6,11111222 
TABS,ioos:station:wmo:42043:1,2005-02-14T07:30:00Z,28.9818,-94.9186,1013.67,11111222 
TABS,ioos:station:wmo:42043:1,2005-02-14T08:00:00Z,28.9818,-94.9186,1013.57,11111222 
TABS,ioos:station:wmo:42043:1,2005-02-14T08:30:00Z,28.9818,-94.9186,1013.54,11111222 
TABS,ioos:station:wmo:42043:1,2005-02-14T09:00:00Z,28.9818,-94.9186,1013.91,11111222 
TABS,ioos:station:wmo:42043:1,2005-02-14T09:30:00Z,28.9818,-94.9186,1014.23,11111222 